Погода в Ружанах

Беларусь     52°51′51″N   24°53′27″E
темп.,
°C
ветер,
м/с
пор.,
м/с
влажн.,
%
обл.,
%
осадки,
мм/ч
давл.,
гПа
погр.,
м
20 апреля, вт
вт2000:00+6всв348062 0.0 101856
03:00+5св3488100 0.0 101782
06:00+4св3594100 0.0 1016113
09:00+8св3581100 0.0 1016389
12:00+8св5483100 1.4 1015900
15:00+10св2369100 2.6 1013950
18:00+11с126194 0.1 10121119
21:00+8ссв2284100 0.7 101255
21 апреля, ср
ср2100:00+7вюв2492100 1.0 1011123
03:00+7ююз249199 1.0 1011122
06:00+5з229550 0.1 101038
09:00+9сз34795 0.1 1010346
12:00+13зсз35539 1.1 10091566
15:00+14зсз3548100 1.8 10091893
18:00+13зсз245998 0.1 1009234
21:00+9ююз117059 0.2 100910
22 апреля, чт
чт2200:00+7юз227861 0.0 101022
03:00+7юз368381 0.0 1010118
06:00+6ююз379124 0.0 1009138
09:00+10зюз59705 0.1 1010585
12:00+10з787099 0.3 10111223
15:00+10зюз6954100 0.3 10121620
18:00+9з5846100 0.0 10121618
21:00+5з386589 0.0 1014242
23 апреля, пт
пт2300:00+3з410750 0.0 1014326
03:00+1юз38871 0.0 1014263
06:000юз38935 0.0 1015226
09:00+4з57685 0.0 1015747
12:00+7з574799 0.2 10151877
15:00+8з6746100 0.4 10151883
18:00+7з575594 0.9 10151400
21:00+4зсз497999 1.9 1017338
24 апреля, сб
сб2400:00+1зсз410885 0.0 1018291
03:000з4991100 0.0 1018394
06:000з499396 0.0 1017578
09:00+2зсз5881100 0.1 1018792
12:00+3з51094100 0.9 1018795
15:00+6зсз5864100 1.9 10171565
18:00+6зсз5106684 1.1 10161461
21:00+1з388089 1.3 1017151